Year,Month,Day,Hour,Minute,Value (Times are PST for temperature in C)
2010,08,14,00,00,24.40
2010,08,14,00,01,24.30
2010,08,14,00,02,24.30
2010,08,14,00,03,24.30
2010,08,14,00,04,24.30
2010,08,14,00,05,24.30
2010,08,14,00,06,24.30
2010,08,14,00,07,24.30
2010,08,14,00,08,24.30
2010,08,14,00,09,24.40
2010,08,14,00,10,24.40
2010,08,14,00,11,24.40
2010,08,14,00,12,24.40
2010,08,14,00,13,24.40
2010,08,14,00,14,24.40
2010,08,14,00,15,24.40
2010,08,14,00,16,24.30
2010,08,14,00,17,24.30
2010,08,14,00,18,24.30
2010,08,14,00,19,24.30
2010,08,14,00,20,24.30
2010,08,14,00,21,24.20
2010,08,14,00,22,24.20
2010,08,14,00,23,24.20
2010,08,14,00,24,24.20
2010,08,14,00,25,24.20
2010,08,14,00,26,24.20
2010,08,14,00,27,24.10
2010,08,14,00,28,24.10
2010,08,14,00,29,24.10
2010,08,14,00,30,24.00
2010,08,14,00,31,24.00
2010,08,14,00,32,24.00
2010,08,14,00,33,23.90
2010,08,14,00,34,23.90
2010,08,14,00,35,23.90
2010,08,14,00,36,23.90
2010,08,14,00,37,23.80
2010,08,14,00,38,23.80
2010,08,14,00,39,23.80
2010,08,14,00,40,23.70
2010,08,14,00,41,23.70
2010,08,14,00,42,23.70
2010,08,14,00,43,23.70
2010,08,14,00,44,23.70
2010,08,14,00,45,23.80
2010,08,14,00,46,23.80
2010,08,14,00,47,23.80
2010,08,14,00,48,23.90
2010,08,14,00,49,23.90
2010,08,14,00,50,24.00
2010,08,14,00,51,24.00
2010,08,14,00,52,24.10
2010,08,14,00,53,24.10
2010,08,14,00,54,24.10
2010,08,14,00,55,24.20
2010,08,14,00,56,24.20
2010,08,14,00,57,24.20
2010,08,14,00,58,24.20
2010,08,14,00,59,24.20
2010,08,14,01,00,24.20
2010,08,14,01,01,24.20
2010,08,14,01,02,24.20
2010,08,14,01,03,24.20
2010,08,14,01,04,24.20
2010,08,14,01,05,24.20
2010,08,14,01,06,24.20
2010,08,14,01,07,24.20
2010,08,14,01,08,24.20
2010,08,14,01,09,24.10
2010,08,14,01,10,24.10
2010,08,14,01,11,24.10
2010,08,14,01,12,24.10
2010,08,14,01,13,24.10
2010,08,14,01,14,24.00
2010,08,14,01,15,24.00
2010,08,14,01,16,24.10
2010,08,14,01,17,24.00
2010,08,14,01,18,24.00
2010,08,14,01,19,24.00
2010,08,14,01,20,24.10
2010,08,14,01,21,24.10
2010,08,14,01,22,24.10
2010,08,14,01,23,24.10
2010,08,14,01,24,24.10
2010,08,14,01,25,24.10
2010,08,14,01,26,24.10
2010,08,14,01,27,24.10
2010,08,14,01,28,24.10
2010,08,14,01,29,24.10
2010,08,14,01,30,24.10
2010,08,14,01,31,24.10
2010,08,14,01,32,24.10
2010,08,14,01,33,24.10
2010,08,14,01,34,24.10
2010,08,14,01,35,24.10
2010,08,14,01,36,24.00
2010,08,14,01,37,24.00
2010,08,14,01,38,24.00
2010,08,14,01,39,24.00
2010,08,14,01,40,24.00
2010,08,14,01,41,24.00
2010,08,14,01,42,24.00
2010,08,14,01,43,23.90
2010,08,14,01,44,23.90
2010,08,14,01,45,23.90
2010,08,14,01,46,23.90
2010,08,14,01,47,23.90
2010,08,14,01,48,23.90
2010,08,14,01,49,23.90
2010,08,14,01,50,23.90
2010,08,14,01,51,23.90
2010,08,14,01,52,23.90
2010,08,14,01,53,23.90
2010,08,14,01,54,23.90
2010,08,14,01,55,23.90
2010,08,14,01,56,23.90
2010,08,14,01,57,23.90
2010,08,14,01,58,23.90
2010,08,14,01,59,23.90
2010,08,14,02,00,23.90
2010,08,14,02,01,23.90
2010,08,14,02,02,23.90
2010,08,14,02,03,23.90
2010,08,14,02,04,23.90
2010,08,14,02,05,23.90
2010,08,14,02,06,23.90
2010,08,14,02,07,23.80
2010,08,14,02,08,23.80
2010,08,14,02,09,23.80
2010,08,14,02,10,23.80
2010,08,14,02,11,23.90
2010,08,14,02,12,23.90
2010,08,14,02,13,23.90
2010,08,14,02,14,23.90
2010,08,14,02,15,23.90
2010,08,14,02,16,23.80
2010,08,14,02,17,23.80
2010,08,14,02,18,23.80
2010,08,14,02,19,23.80
2010,08,14,02,20,23.80
2010,08,14,02,21,23.70
2010,08,14,02,22,23.70
2010,08,14,02,23,23.70
2010,08,14,02,24,23.70
2010,08,14,02,25,23.70
2010,08,14,02,26,23.70
2010,08,14,02,27,23.70
2010,08,14,02,28,23.70
2010,08,14,02,29,23.70
2010,08,14,02,30,23.70
2010,08,14,02,31,23.70
2010,08,14,02,32,23.70
2010,08,14,02,33,23.70
2010,08,14,02,34,23.70
2010,08,14,02,35,23.70
2010,08,14,02,36,23.70
2010,08,14,02,37,23.70
2010,08,14,02,38,23.70
2010,08,14,02,39,23.60
2010,08,14,02,40,23.60
2010,08,14,02,41,23.60
2010,08,14,02,42,23.60
2010,08,14,02,43,23.50
2010,08,14,02,44,23.50
2010,08,14,02,45,23.40
2010,08,14,02,46,23.40
2010,08,14,02,47,23.30
2010,08,14,02,48,23.30
2010,08,14,02,49,23.20
2010,08,14,02,50,23.20
2010,08,14,02,51,23.10
2010,08,14,02,52,23.10
2010,08,14,02,53,23.10
2010,08,14,02,54,23.00
2010,08,14,02,55,23.00
2010,08,14,02,56,23.00
2010,08,14,02,57,22.90
2010,08,14,02,58,22.90
2010,08,14,02,59,22.80
2010,08,14,03,00,22.80
2010,08,14,03,01,22.80
2010,08,14,03,02,22.70
2010,08,14,03,03,22.70
2010,08,14,03,04,22.70
2010,08,14,03,05,22.70
2010,08,14,03,06,22.70
2010,08,14,03,07,22.70
2010,08,14,03,08,22.70
2010,08,14,03,09,22.70
2010,08,14,03,10,22.70
2010,08,14,03,11,22.70
2010,08,14,03,12,22.70
2010,08,14,03,13,22.70
2010,08,14,03,14,22.70
2010,08,14,03,15,22.70
2010,08,14,03,16,22.70
2010,08,14,03,17,22.70
2010,08,14,03,18,22.70
2010,08,14,03,19,22.70
2010,08,14,03,20,22.70
2010,08,14,03,21,22.70
2010,08,14,03,22,22.70
2010,08,14,03,23,22.70
2010,08,14,03,24,22.70
2010,08,14,03,25,22.70
2010,08,14,03,26,22.70
2010,08,14,03,27,22.70
2010,08,14,03,28,22.60
2010,08,14,03,29,22.60
2010,08,14,03,30,22.60
2010,08,14,03,31,22.60
2010,08,14,03,32,22.60
2010,08,14,03,33,22.50
2010,08,14,03,34,22.50
2010,08,14,03,35,22.40
2010,08,14,03,36,22.40
2010,08,14,03,37,22.40
2010,08,14,03,38,22.40
2010,08,14,03,39,22.40
2010,08,14,03,40,22.40
2010,08,14,03,41,22.50
2010,08,14,03,42,22.50
2010,08,14,03,43,22.50
2010,08,14,03,44,22.50
2010,08,14,03,45,22.50
2010,08,14,03,46,22.60
2010,08,14,03,47,22.70
2010,08,14,03,48,22.70
2010,08,14,03,49,22.80
2010,08,14,03,50,22.80
2010,08,14,03,51,22.80
2010,08,14,03,52,22.80
2010,08,14,03,53,22.80
2010,08,14,03,54,22.80
2010,08,14,03,55,22.80
2010,08,14,03,56,22.90
2010,08,14,03,57,22.90
2010,08,14,03,58,23.00
2010,08,14,03,59,23.00
2010,08,14,04,00,23.00
2010,08,14,04,01,23.00
2010,08,14,04,02,23.00
2010,08,14,04,03,23.00
2010,08,14,04,04,23.00
2010,08,14,04,05,22.90
2010,08,14,04,06,22.90
2010,08,14,04,07,22.80
2010,08,14,04,08,22.80
2010,08,14,04,09,22.70
2010,08,14,04,10,22.70
2010,08,14,04,11,22.60
2010,08,14,04,12,22.60
2010,08,14,04,13,22.60
2010,08,14,04,14,22.50
2010,08,14,04,15,22.50
2010,08,14,04,16,22.50
2010,08,14,04,17,22.40
2010,08,14,04,18,22.40
2010,08,14,04,19,22.40
2010,08,14,04,20,22.40
2010,08,14,04,21,22.40
2010,08,14,04,22,22.30
2010,08,14,04,23,22.30
2010,08,14,04,24,22.30
2010,08,14,04,25,22.30
2010,08,14,04,26,22.30
2010,08,14,04,27,22.30
2010,08,14,04,28,22.30
2010,08,14,04,29,22.40
2010,08,14,04,30,22.40
2010,08,14,04,31,22.40
2010,08,14,04,32,22.50
2010,08,14,04,33,22.50
2010,08,14,04,34,22.60
2010,08,14,04,35,22.60
2010,08,14,04,36,22.70
2010,08,14,04,37,22.70
2010,08,14,04,38,22.70
2010,08,14,04,39,22.80
2010,08,14,04,40,22.80
2010,08,14,04,41,22.80
2010,08,14,04,42,22.90
2010,08,14,04,43,22.90
2010,08,14,04,44,22.90
2010,08,14,04,45,22.90
2010,08,14,04,46,22.90
2010,08,14,04,47,22.80
2010,08,14,04,48,22.70
2010,08,14,04,49,22.70
2010,08,14,04,50,22.60
2010,08,14,04,51,22.50
2010,08,14,04,52,22.50
2010,08,14,04,53,22.40
2010,08,14,04,54,22.40
2010,08,14,04,55,22.40
2010,08,14,04,56,22.40
2010,08,14,04,57,22.40
2010,08,14,04,58,22.40
2010,08,14,04,59,22.50
2010,08,14,05,00,22.50
2010,08,14,05,01,22.60
2010,08,14,05,02,22.60
2010,08,14,05,03,22.60
2010,08,14,05,04,22.60
2010,08,14,05,05,22.60
2010,08,14,05,06,22.70
2010,08,14,05,07,22.70
2010,08,14,05,08,22.70
2010,08,14,05,09,22.70
2010,08,14,05,10,22.70
2010,08,14,05,11,22.70
2010,08,14,05,12,22.70
2010,08,14,05,13,22.70
2010,08,14,05,14,22.70
2010,08,14,05,15,22.60
2010,08,14,05,16,22.60
2010,08,14,05,17,22.50
2010,08,14,05,18,22.50
2010,08,14,05,19,22.40
2010,08,14,05,20,22.30
2010,08,14,05,21,22.30
2010,08,14,05,22,22.20
2010,08,14,05,23,22.20
2010,08,14,05,24,22.20
2010,08,14,05,25,22.10
2010,08,14,05,26,22.10
2010,08,14,05,27,22.00
2010,08,14,05,28,22.00
2010,08,14,05,29,21.90
2010,08,14,05,30,21.90
2010,08,14,05,31,21.90
2010,08,14,05,32,21.90
2010,08,14,05,33,21.90
2010,08,14,05,34,21.90
2010,08,14,05,35,21.90
2010,08,14,05,36,21.80
2010,08,14,05,37,21.80
2010,08,14,05,38,21.80
2010,08,14,05,39,21.80
2010,08,14,05,40,21.80
2010,08,14,05,41,21.80
2010,08,14,05,42,21.90
2010,08,14,05,43,21.90
2010,08,14,05,44,21.90
2010,08,14,05,45,22.00
2010,08,14,05,46,22.00
2010,08,14,05,47,22.10
2010,08,14,05,48,22.10
2010,08,14,05,49,22.10
2010,08,14,05,50,22.10
2010,08,14,05,51,22.10
2010,08,14,05,52,22.10
2010,08,14,05,53,22.10
2010,08,14,05,54,22.00
2010,08,14,05,55,22.00
2010,08,14,05,56,22.00
2010,08,14,05,57,21.90
2010,08,14,05,58,21.90
2010,08,14,05,59,21.90
2010,08,14,06,00,21.80
2010,08,14,06,01,21.80
2010,08,14,06,02,21.80
2010,08,14,06,03,21.70
2010,08,14,06,04,21.60
2010,08,14,06,05,21.60
2010,08,14,06,06,21.60
2010,08,14,06,07,21.50
2010,08,14,06,08,21.50
2010,08,14,06,09,21.40
2010,08,14,06,10,21.40
2010,08,14,06,11,21.40
2010,08,14,06,12,21.40
2010,08,14,06,13,21.50
2010,08,14,06,14,21.50
2010,08,14,06,15,21.50
2010,08,14,06,16,21.50
2010,08,14,06,17,21.50
2010,08,14,06,18,21.50
2010,08,14,06,19,21.40
2010,08,14,06,20,21.50
2010,08,14,06,21,21.50
2010,08,14,06,22,21.50
2010,08,14,06,23,21.50
2010,08,14,06,24,21.50
2010,08,14,06,25,21.50
2010,08,14,06,26,21.50
2010,08,14,06,27,21.50
2010,08,14,06,28,21.60
2010,08,14,06,29,21.60
2010,08,14,06,30,21.60
2010,08,14,06,31,21.60
2010,08,14,06,32,21.60
2010,08,14,06,33,21.60
2010,08,14,06,34,21.60
2010,08,14,06,35,21.60
2010,08,14,06,36,21.60
2010,08,14,06,37,21.60
2010,08,14,06,38,21.60
2010,08,14,06,39,21.60
2010,08,14,06,40,21.60
2010,08,14,06,41,21.60
2010,08,14,06,42,21.60
2010,08,14,06,43,21.60
2010,08,14,06,44,21.60
2010,08,14,06,45,21.60
2010,08,14,06,46,21.60
2010,08,14,06,47,21.60
2010,08,14,06,48,21.70
2010,08,14,06,49,21.70
2010,08,14,06,50,21.70
2010,08,14,06,51,21.80
2010,08,14,06,52,21.80
2010,08,14,06,53,21.80
2010,08,14,06,54,21.80
2010,08,14,06,55,21.80
2010,08,14,06,56,21.80
2010,08,14,06,57,21.80
2010,08,14,06,58,21.80
2010,08,14,06,59,21.90
2010,08,14,07,00,21.90
2010,08,14,07,01,21.90
2010,08,14,07,02,22.00
2010,08,14,07,03,22.00
2010,08,14,07,04,22.00
2010,08,14,07,05,22.10
2010,08,14,07,06,22.10
2010,08,14,07,07,22.10
2010,08,14,07,08,22.10
2010,08,14,07,09,22.10
2010,08,14,07,10,22.10
2010,08,14,07,11,22.10
2010,08,14,07,12,22.20
2010,08,14,07,13,22.20
2010,08,14,07,14,22.20
2010,08,14,07,15,22.20
2010,08,14,07,16,22.20
2010,08,14,07,17,22.20
2010,08,14,07,18,22.20
2010,08,14,07,19,22.30
2010,08,14,07,20,22.30
2010,08,14,07,21,22.30
2010,08,14,07,22,22.30
2010,08,14,07,23,22.30
2010,08,14,07,24,22.30
2010,08,14,07,25,22.30
2010,08,14,07,26,22.40
2010,08,14,07,27,22.40
2010,08,14,07,28,22.40
2010,08,14,07,29,22.40
2010,08,14,07,30,22.40
2010,08,14,07,31,22.50
2010,08,14,07,32,22.50
2010,08,14,07,33,22.50
2010,08,14,07,34,22.50
2010,08,14,07,35,22.50
2010,08,14,07,36,22.60
2010,08,14,07,37,22.60
2010,08,14,07,38,22.60
2010,08,14,07,39,22.60
2010,08,14,07,40,22.70
2010,08,14,07,41,22.70
2010,08,14,07,42,22.80
2010,08,14,07,43,22.80
2010,08,14,07,44,22.80
2010,08,14,07,45,22.90
2010,08,14,07,46,22.90
2010,08,14,07,47,22.90
2010,08,14,07,48,22.90
2010,08,14,07,49,22.90
2010,08,14,07,50,23.00
2010,08,14,07,51,23.00
2010,08,14,07,52,23.00
2010,08,14,07,53,23.00
2010,08,14,07,54,23.00
2010,08,14,07,55,23.10
2010,08,14,07,56,23.10
2010,08,14,07,57,23.10
2010,08,14,07,58,23.10
2010,08,14,07,59,23.20
2010,08,14,08,00,23.20
2010,08,14,08,01,23.20
2010,08,14,08,02,23.30
2010,08,14,08,03,23.30
2010,08,14,08,04,23.30
2010,08,14,08,05,23.30
2010,08,14,08,06,23.40
2010,08,14,08,07,23.40
2010,08,14,08,08,23.40
2010,08,14,08,09,23.50
2010,08,14,08,10,23.50
2010,08,14,08,11,23.60
2010,08,14,08,12,23.60
2010,08,14,08,13,23.70
2010,08,14,08,14,23.70
2010,08,14,08,15,23.70
2010,08,14,08,16,23.80
2010,08,14,08,17,23.80
2010,08,14,08,18,23.90
2010,08,14,08,19,23.90
2010,08,14,08,20,23.90
2010,08,14,08,21,24.00
2010,08,14,08,22,24.00
2010,08,14,08,23,24.10
2010,08,14,08,24,24.10
2010,08,14,08,25,24.20
2010,08,14,08,26,24.30
2010,08,14,08,27,24.30
2010,08,14,08,28,24.40
2010,08,14,08,29,24.40
2010,08,14,08,30,24.40
2010,08,14,08,31,24.50
2010,08,14,08,32,24.50
2010,08,14,08,33,24.60
2010,08,14,08,34,24.60
2010,08,14,08,35,24.70
2010,08,14,08,36,24.70
2010,08,14,08,37,24.70
2010,08,14,08,38,24.80
2010,08,14,08,39,24.80
2010,08,14,08,40,24.90
2010,08,14,08,41,24.90
2010,08,14,08,42,25.00
2010,08,14,08,43,25.00
2010,08,14,08,44,25.10
2010,08,14,08,45,25.10
2010,08,14,08,46,25.10
2010,08,14,08,47,25.20
2010,08,14,08,48,25.20
2010,08,14,08,49,25.20
2010,08,14,08,50,25.30
2010,08,14,08,51,25.30
2010,08,14,08,52,25.40
2010,08,14,08,53,25.50
2010,08,14,08,54,25.60
2010,08,14,08,55,25.60
2010,08,14,08,56,25.70
2010,08,14,08,57,25.70
2010,08,14,08,58,25.70
2010,08,14,08,59,25.60
2010,08,14,09,00,25.60
2010,08,14,09,01,25.60
2010,08,14,09,02,25.60
2010,08,14,09,03,25.60
2010,08,14,09,04,25.60
2010,08,14,09,05,25.50
2010,08,14,09,06,25.40
2010,08,14,09,07,25.40
2010,08,14,09,08,25.40
2010,08,14,09,09,25.30
2010,08,14,09,10,25.30
2010,08,14,09,11,25.40
2010,08,14,09,12,25.50
2010,08,14,09,13,25.50
2010,08,14,09,14,25.60
2010,08,14,09,15,25.60
2010,08,14,09,16,25.60
2010,08,14,09,17,25.60
2010,08,14,09,18,25.70
2010,08,14,09,19,25.70
2010,08,14,09,20,25.70
2010,08,14,09,21,25.70
2010,08,14,09,22,25.80
2010,08,14,09,23,25.90
2010,08,14,09,24,26.00
2010,08,14,09,25,26.10
2010,08,14,09,26,26.20
2010,08,14,09,27,26.30
2010,08,14,09,28,26.30
2010,08,14,09,29,26.20
2010,08,14,09,30,26.20
2010,08,14,09,31,26.20
2010,08,14,09,32,26.20
2010,08,14,09,33,26.20
2010,08,14,09,34,26.20
2010,08,14,09,35,26.20
2010,08,14,09,36,26.20
2010,08,14,09,37,26.20
2010,08,14,09,38,26.20
2010,08,14,09,39,26.10
2010,08,14,09,40,26.00
2010,08,14,09,41,26.00
2010,08,14,09,42,26.10
2010,08,14,09,43,26.10
2010,08,14,09,44,26.10
2010,08,14,09,45,26.20
2010,08,14,09,46,26.30
2010,08,14,09,47,26.40
2010,08,14,09,48,26.50
2010,08,14,09,49,26.60
2010,08,14,09,50,26.50
2010,08,14,09,51,26.50
2010,08,14,09,52,26.40
2010,08,14,09,53,26.30
2010,08,14,09,54,26.30
2010,08,14,09,55,26.20
2010,08,14,09,56,26.30
2010,08,14,09,57,26.30
2010,08,14,09,58,26.40
2010,08,14,09,59,26.40
2010,08,14,10,00,26.40
2010,08,14,10,01,26.40
2010,08,14,10,02,26.40
2010,08,14,10,03,26.40
2010,08,14,10,04,26.30
2010,08,14,10,05,26.40
2010,08,14,10,06,26.40
2010,08,14,10,07,26.40
2010,08,14,10,08,26.50
2010,08,14,10,09,26.60
2010,08,14,10,10,26.70
2010,08,14,10,11,26.80
2010,08,14,10,12,26.80
2010,08,14,10,13,26.70
2010,08,14,10,14,26.70
2010,08,14,10,15,26.70
2010,08,14,10,16,26.70
2010,08,14,10,17,26.60
2010,08,14,10,18,26.70
2010,08,14,10,19,26.70
2010,08,14,10,20,26.70
2010,08,14,10,21,26.70
2010,08,14,10,22,26.70
2010,08,14,10,23,26.70
2010,08,14,10,24,26.70
2010,08,14,10,25,26.70
2010,08,14,10,26,26.70
2010,08,14,10,27,26.70
2010,08,14,10,28,26.70
2010,08,14,10,29,26.70
2010,08,14,10,30,26.80
2010,08,14,10,31,26.70
2010,08,14,10,32,26.80
2010,08,14,10,33,26.80
2010,08,14,10,34,26.80
2010,08,14,10,35,26.90
2010,08,14,10,36,26.90
2010,08,14,10,37,27.00
2010,08,14,10,38,27.10
2010,08,14,10,39,27.10
2010,08,14,10,40,27.20
2010,08,14,10,41,27.20
2010,08,14,10,42,27.30
2010,08,14,10,43,27.30
2010,08,14,10,44,27.20
2010,08,14,10,45,27.30
2010,08,14,10,46,27.30
2010,08,14,10,47,27.30
2010,08,14,10,48,27.30
2010,08,14,10,49,27.30
2010,08,14,10,50,27.30
2010,08,14,10,51,27.30
2010,08,14,10,52,27.20
2010,08,14,10,53,27.20
2010,08,14,10,54,27.20
2010,08,14,10,55,27.10
2010,08,14,10,56,27.10
2010,08,14,10,57,27.10
2010,08,14,10,58,27.20
2010,08,14,10,59,27.20
2010,08,14,11,00,27.20
2010,08,14,11,01,27.20
2010,08,14,11,02,27.20
2010,08,14,11,03,27.30
2010,08,14,11,04,27.30
2010,08,14,11,05,27.30
2010,08,14,11,06,27.30
2010,08,14,11,07,27.30
2010,08,14,11,08,27.30
2010,08,14,11,09,27.30
2010,08,14,11,10,27.30
2010,08,14,11,11,27.30
2010,08,14,11,12,27.30
2010,08,14,11,13,27.30
2010,08,14,11,14,27.30
2010,08,14,11,15,27.30
2010,08,14,11,16,27.30
2010,08,14,11,17,27.30
2010,08,14,11,18,27.30
2010,08,14,11,19,27.30
2010,08,14,11,20,27.30
2010,08,14,11,21,27.30
2010,08,14,11,22,27.30
2010,08,14,11,23,27.50
2010,08,14,11,24,27.60
2010,08,14,11,25,27.80
2010,08,14,11,26,27.90
2010,08,14,11,27,27.90
2010,08,14,11,28,28.00
2010,08,14,11,29,28.10
2010,08,14,11,30,28.10
2010,08,14,11,31,28.10
2010,08,14,11,32,28.20
2010,08,14,11,33,28.30
2010,08,14,11,34,28.30
2010,08,14,11,35,28.30
2010,08,14,11,36,28.30
2010,08,14,11,37,28.40
2010,08,14,11,38,28.40
2010,08,14,11,39,28.40
2010,08,14,11,40,28.50
2010,08,14,11,41,28.50
2010,08,14,11,42,28.60
2010,08,14,11,43,28.70
2010,08,14,11,44,28.80
2010,08,14,11,45,28.80
2010,08,14,11,46,28.80
2010,08,14,11,47,28.70
2010,08,14,11,48,28.70
2010,08,14,11,49,28.80
2010,08,14,11,50,28.70
2010,08,14,11,51,28.80
2010,08,14,11,52,28.80
2010,08,14,11,53,28.80
2010,08,14,11,54,28.90
2010,08,14,11,55,28.80
2010,08,14,11,56,28.80
2010,08,14,11,57,28.80
2010,08,14,11,58,28.80
2010,08,14,11,59,28.90
2010,08,14,12,00,28.90
2010,08,14,12,01,29.00
2010,08,14,12,02,29.00
2010,08,14,12,03,29.10
2010,08,14,12,04,29.20
2010,08,14,12,05,29.20
2010,08,14,12,06,29.20
2010,08,14,12,07,29.20
2010,08,14,12,08,29.10
2010,08,14,12,09,28.90
2010,08,14,12,10,28.90
2010,08,14,12,11,28.80
2010,08,14,12,12,28.80
2010,08,14,12,13,28.70
2010,08,14,12,14,28.80
2010,08,14,12,15,28.80
2010,08,14,12,16,28.80
2010,08,14,12,17,28.80
2010,08,14,12,18,28.80
2010,08,14,12,19,28.90
2010,08,14,12,20,28.90
2010,08,14,12,21,28.90
2010,08,14,12,22,28.90
2010,08,14,12,23,28.90
2010,08,14,12,24,28.90
2010,08,14,12,25,28.90
2010,08,14,12,26,29.00
2010,08,14,12,27,29.10
2010,08,14,12,28,29.10
2010,08,14,12,29,29.20
2010,08,14,12,30,29.20
2010,08,14,12,31,29.30
2010,08,14,12,32,29.30
2010,08,14,12,33,29.40
2010,08,14,12,34,29.40
2010,08,14,12,35,29.40
2010,08,14,12,36,29.40
2010,08,14,12,37,29.30
2010,08,14,12,38,29.20
2010,08,14,12,39,29.20
2010,08,14,12,40,29.20
2010,08,14,12,41,29.30
2010,08,14,12,42,29.30
2010,08,14,12,43,29.30
2010,08,14,12,44,29.40
2010,08,14,12,45,29.60
2010,08,14,12,46,29.60
2010,08,14,12,47,29.70
2010,08,14,12,48,29.80
2010,08,14,12,49,29.90
2010,08,14,12,50,30.00
2010,08,14,12,51,30.00
2010,08,14,12,52,29.90
2010,08,14,12,53,29.70
2010,08,14,12,54,29.60
2010,08,14,12,55,29.40
2010,08,14,12,56,29.40
2010,08,14,12,57,29.30
2010,08,14,12,58,29.30
2010,08,14,12,59,29.30
2010,08,14,13,00,29.40
2010,08,14,13,01,29.30
2010,08,14,13,02,29.40
2010,08,14,13,03,29.40
2010,08,14,13,04,29.40
2010,08,14,13,05,29.40
2010,08,14,13,06,29.40
2010,08,14,13,07,29.40
2010,08,14,13,08,29.50
2010,08,14,13,09,29.60
2010,08,14,13,10,29.70
2010,08,14,13,11,29.70
2010,08,14,13,12,29.70
2010,08,14,13,13,29.80
2010,08,14,13,14,29.80
2010,08,14,13,15,29.80
2010,08,14,13,16,29.80
2010,08,14,13,17,29.80
2010,08,14,13,18,29.90
2010,08,14,13,19,29.90
2010,08,14,13,20,29.90
2010,08,14,13,21,29.90
2010,08,14,13,22,30.00
2010,08,14,13,23,30.00
2010,08,14,13,24,30.10
2010,08,14,13,25,30.10
2010,08,14,13,26,30.10
2010,08,14,13,27,30.10
2010,08,14,13,28,30.20
2010,08,14,13,29,30.20
2010,08,14,13,30,30.20
2010,08,14,13,31,30.30
2010,08,14,13,32,30.40
2010,08,14,13,33,30.50
2010,08,14,13,34,30.60
2010,08,14,13,35,30.70
2010,08,14,13,36,30.80
2010,08,14,13,37,30.80
2010,08,14,13,38,30.80
2010,08,14,13,39,30.80
2010,08,14,13,40,30.80
2010,08,14,13,41,30.70
2010,08,14,13,42,30.60
2010,08,14,13,43,30.60
2010,08,14,13,44,30.50
2010,08,14,13,45,30.40
2010,08,14,13,46,30.50
2010,08,14,13,47,30.50
2010,08,14,13,48,30.40
2010,08,14,13,49,30.40
2010,08,14,13,50,30.40
2010,08,14,13,51,30.30
2010,08,14,13,52,30.30
2010,08,14,13,53,30.30
2010,08,14,13,54,30.30
2010,08,14,13,55,30.30
2010,08,14,13,56,30.30
2010,08,14,13,57,30.30
2010,08,14,13,58,30.30
2010,08,14,13,59,30.30
2010,08,14,14,00,30.30
2010,08,14,14,01,30.40
2010,08,14,14,02,30.50
2010,08,14,14,03,30.70
2010,08,14,14,04,30.80
2010,08,14,14,05,30.90
2010,08,14,14,06,31.00
2010,08,14,14,07,31.00
2010,08,14,14,08,31.10
2010,08,14,14,09,31.10
2010,08,14,14,10,31.10
2010,08,14,14,11,31.10
2010,08,14,14,12,31.00
2010,08,14,14,13,30.90
2010,08,14,14,14,30.90
2010,08,14,14,15,30.70
2010,08,14,14,16,30.60
2010,08,14,14,17,30.60
2010,08,14,14,18,30.60
2010,08,14,14,19,30.60
2010,08,14,14,20,30.60
2010,08,14,14,21,30.60
2010,08,14,14,22,30.60
2010,08,14,14,23,30.70
2010,08,14,14,24,30.80
2010,08,14,14,25,30.80
2010,08,14,14,26,30.90
2010,08,14,14,27,30.90
2010,08,14,14,28,31.00
2010,08,14,14,29,31.00
2010,08,14,14,30,31.00
2010,08,14,14,31,30.90
2010,08,14,14,32,31.00
2010,08,14,14,33,31.00
2010,08,14,14,34,31.10
2010,08,14,14,35,31.20
2010,08,14,14,36,31.20
2010,08,14,14,37,31.30
2010,08,14,14,38,31.30
2010,08,14,14,39,31.40
2010,08,14,14,40,31.50
2010,08,14,14,41,31.60
2010,08,14,14,42,31.60
2010,08,14,14,43,31.70
2010,08,14,14,44,31.70
2010,08,14,14,45,31.80
2010,08,14,14,46,31.90
2010,08,14,14,47,32.00
2010,08,14,14,48,32.10
2010,08,14,14,49,32.00
2010,08,14,14,50,31.90
2010,08,14,14,51,31.70
2010,08,14,14,52,31.70
2010,08,14,14,53,31.70
2010,08,14,14,54,31.70
2010,08,14,14,55,31.70
2010,08,14,14,56,31.80
2010,08,14,14,57,31.80
2010,08,14,14,58,31.90
2010,08,14,14,59,31.90
2010,08,14,15,00,31.90
2010,08,14,15,01,31.90
2010,08,14,15,02,31.80
2010,08,14,15,03,31.80
2010,08,14,15,04,31.80
2010,08,14,15,05,31.80
2010,08,14,15,06,31.80
2010,08,14,15,07,31.80
2010,08,14,15,08,31.80
2010,08,14,15,09,31.70
2010,08,14,15,10,31.70
2010,08,14,15,11,31.70
2010,08,14,15,12,31.80
2010,08,14,15,13,31.80
2010,08,14,15,14,31.90
2010,08,14,15,15,32.00
2010,08,14,15,16,32.00
2010,08,14,15,17,32.00
2010,08,14,15,18,32.00
2010,08,14,15,19,32.10
2010,08,14,15,20,32.10
2010,08,14,15,21,32.00
2010,08,14,15,22,32.00
2010,08,14,15,23,32.00
2010,08,14,15,24,32.00
2010,08,14,15,25,31.90
2010,08,14,15,26,31.90
2010,08,14,15,27,31.90
2010,08,14,15,28,31.80
2010,08,14,15,29,31.80
2010,08,14,15,30,31.90
2010,08,14,15,31,31.90
2010,08,14,15,32,32.00
2010,08,14,15,33,32.00
2010,08,14,15,34,32.10
2010,08,14,15,35,32.10
2010,08,14,15,36,32.10
2010,08,14,15,37,32.10
2010,08,14,15,38,32.20
2010,08,14,15,39,32.20
2010,08,14,15,40,32.20
2010,08,14,15,41,32.30
2010,08,14,15,42,32.30
2010,08,14,15,43,32.30
2010,08,14,15,44,32.20
2010,08,14,15,45,32.20
2010,08,14,15,46,32.20
2010,08,14,15,47,32.10
2010,08,14,15,48,32.10
2010,08,14,15,49,32.20
2010,08,14,15,50,32.20
2010,08,14,15,51,32.30
2010,08,14,15,52,32.40
2010,08,14,15,53,32.50
2010,08,14,15,54,32.60
2010,08,14,15,55,32.60
2010,08,14,15,56,32.60
2010,08,14,15,57,32.60
2010,08,14,15,58,32.70
2010,08,14,15,59,32.80
2010,08,14,16,00,32.90
2010,08,14,16,01,32.90
2010,08,14,16,02,33.10
2010,08,14,16,03,33.10
2010,08,14,16,04,33.20
2010,08,14,16,05,33.20
2010,08,14,16,06,33.10
2010,08,14,16,07,33.10
2010,08,14,16,08,33.00
2010,08,14,16,09,32.90
2010,08,14,16,10,32.90
2010,08,14,16,11,32.90
2010,08,14,16,12,32.80
2010,08,14,16,13,32.80
2010,08,14,16,14,32.70
2010,08,14,16,15,32.60
2010,08,14,16,16,32.40
2010,08,14,16,17,32.40
2010,08,14,16,18,32.30
2010,08,14,16,19,32.20
2010,08,14,16,20,32.20
2010,08,14,16,21,32.10
2010,08,14,16,22,32.00
2010,08,14,16,23,32.00
2010,08,14,16,24,32.00
2010,08,14,16,25,32.10
2010,08,14,16,26,32.10
2010,08,14,16,27,32.20
2010,08,14,16,28,32.30
2010,08,14,16,29,32.40
2010,08,14,16,30,32.40
2010,08,14,16,31,32.40
2010,08,14,16,32,32.50
2010,08,14,16,33,32.60
2010,08,14,16,34,32.60
2010,08,14,16,35,32.70
2010,08,14,16,36,32.80
2010,08,14,16,37,32.90
2010,08,14,16,38,32.80
2010,08,14,16,39,32.80
2010,08,14,16,40,32.80
2010,08,14,16,41,32.80
2010,08,14,16,42,32.80
2010,08,14,16,43,32.70
2010,08,14,16,44,32.60
2010,08,14,16,45,32.40
2010,08,14,16,46,32.40
2010,08,14,16,47,32.30
2010,08,14,16,48,32.10
2010,08,14,16,49,32.00
2010,08,14,16,50,31.90
2010,08,14,16,51,31.90
2010,08,14,16,52,31.90
2010,08,14,16,53,31.80
2010,08,14,16,54,31.80
2010,08,14,16,55,31.90
2010,08,14,16,56,32.00
2010,08,14,16,57,32.10
2010,08,14,16,58,32.20
2010,08,14,16,59,32.30
2010,08,14,17,00,32.30
2010,08,14,17,01,32.30
2010,08,14,17,02,32.40
2010,08,14,17,03,32.50
2010,08,14,17,04,32.50
2010,08,14,17,05,32.60
2010,08,14,17,06,32.70
2010,08,14,17,07,32.80
2010,08,14,17,08,32.70
2010,08,14,17,09,32.70
2010,08,14,17,10,32.70
2010,08,14,17,11,32.70
2010,08,14,17,12,32.60
2010,08,14,17,13,32.60
2010,08,14,17,14,32.50
2010,08,14,17,15,32.50
2010,08,14,17,16,32.50
2010,08,14,17,17,32.40
2010,08,14,17,18,32.40
2010,08,14,17,19,32.30